Zurück zum Katalog

KUIPER-00244

AktivKommunikationLEO
NORAD 68583·PAYLOAD·🇺🇸 United States

Gestartet Apr 4, 2026 von Cape Canaveral Space Force Station

Loading…

Nächste Überflüge (nächste 24 Stunden)

TLE

AktuellSource: CelesTrak SupGP

Epoche: Sep 14, 2026, 19:01 UTC

1 68583C 26072L   26257.79276620 -.00000595  00000+0 -77885-4 0  2574
2 68583  51.8983 144.4265 0001042  89.8529 129.1571 14.79923248    16

Verfolge KUIPER-00244 in Echtzeit mit AllMySat

Download on the App Store